Location: Newark
(34.9471°N, 136.1778°E)
Time: 21:24:23
(UTC+00:00)

METEOR M2 - Pass Details

Date: 26 February 2020
Orbit: 818 x 828 km, 98.5° (Epoch: 09 April)

Event Time Altitude Azimuth Distance (km) Brightness Sun altitude
Exits shadow 10:11:35 18° 138° (SE) 1,928 ? -18.0°
Maximum altitude 10:15:20 47° 72° (ENE) 1,090 ? -18.8°
Drops below altitude 10° 10:20:29 10° 0° (N) 2,437 ? -19.8°
Sets 10:22:55 0° 355° (N) 3,374 ? -20.3°
